Torna al catalogo

CINEMA 3

AttivoScienzaSSO
NORAD 39426·PAYLOAD·🇺🇸 United States

Lanciato Nov 21, 2013 da Dombarovsky

Loading…

Prossimi Passaggi (prossime 24 ore)

TLE

AggiornatoSource: Space-Track

Epoca: Sep 13, 2026, 17:43 UTC

1 39426U 13066L   26256.73861097  .00000977  00000-0  13279-3 0  9990
2 39426  97.8320 166.5935 0088139 285.5740  73.5755 14.78497100687532

Traccia CINEMA 3 in tempo reale con AllMySat

Download on the App Store